FECHA, PRODUCCION
2010-05-01, 0
2010-05-02, 0
2010-05-03, 0
2010-05-04, 0
2010-05-05, 0
2010-05-06, 0
2010-05-07, 0
2010-05-08, 0
2010-05-09, 0
2010-05-10, 0
2010-05-11, 0
2010-05-12, 0
2010-05-13, 0
2010-05-14, 0
2010-05-15, 0
2010-05-16, 0
2010-05-17, 0
2010-05-18, 0
2010-05-19, 0
2010-05-20, 0
2010-05-21, 0
2010-05-22, 0
2010-05-23, 0
2010-05-24, 0
2010-05-25, 0
2010-05-26, 0
2010-05-27, 0
2010-05-28, 0
2010-05-29, 0
2010-05-30, 0
2010-05-31, 0
2010-06-01, 0
2010-06-02, 0
2010-06-03, 0
2010-06-04, 0
2010-06-05, 0
2010-06-06, 0
2010-06-07, 0
2010-06-08, 0
2010-06-09, 0
2010-06-10, 0
2010-06-11, 0
2010-06-12, 0
2010-06-13, 0
2010-06-14, 0
2010-06-15, 0
2010-06-16, 0
2010-06-17, 0
2010-06-18, 0
2010-06-19, 0
2010-06-20, 0
2010-06-21, 0
2010-06-22, 0
2010-06-23, 0
2010-06-24, 0
2010-06-25, 0
2010-06-26, 0
2010-06-27, 0
2010-06-28, 0
2010-06-29, 0
2010-06-30, 0
2010-07-01, 0
2010-07-02, 0
2010-07-03, 0
2010-07-04, 0
2010-07-05, 0
2010-07-06, 0
2010-07-07, 0
2010-07-08, 0
2010-07-09, 0
2010-07-10, 0
2010-07-11, 0
2010-07-12, 0
2010-07-13, 0
2010-07-14, 0
2010-07-15, 0
2010-07-16, 0
2010-07-17, 0
2010-07-18, 0
2010-07-19, 0
2010-07-20, 0
2010-07-21, 0
2010-07-22, 0
2010-07-23, 0
2010-07-24, 0
2010-07-25, 0
2010-07-26, 0
2010-07-27, 0
2010-07-28, 0
2010-07-29, 0
2010-07-30, 0
2010-07-31, 0
2010-08-01, 0
2010-08-02, 0
2010-08-03, 0
2010-08-04, 0
2010-08-05, 0
2010-08-06, 0
2010-08-07, 0
2010-08-08, 0
2010-08-09, 0
2010-08-10, 0
2010-08-11, 0
2010-08-12, 0
2010-08-13, 0
2010-08-14, 0
2010-08-15, 0
2010-08-16, 0
2010-08-17, 0
2010-08-18, 0
2010-08-19, 0
2010-08-20, 0
2010-08-21, 0
2010-08-22, 0
2010-08-23, 0
2010-08-24, 0
2010-08-25, 0
2010-08-26, 0
2010-08-27, 0
2010-08-28, 0
2010-08-29, 0
2010-08-30, 0
2010-08-31, 0
2010-09-01, 0
2010-09-02, 0
2010-09-03, 0
2010-09-04, 0
2010-09-05, 0
2010-09-06, 0
2010-09-07, 0
2010-09-08, 0
2010-09-09, 0
2010-09-10, 0
2010-09-11, 0
2010-09-12, 0
2010-09-13, 0
2010-09-14, 0
2010-09-15, 0
2010-09-16, 0
2010-09-17, 0
2010-09-18, 0
2010-09-19, 0
2010-09-20, 0
2010-09-21, 0
2010-09-22, 0
2010-09-23, 0
2010-09-24, 0
2010-09-25, 0
2010-09-26, 0
2010-09-27, 0
2010-09-28, 0
2010-09-29, 0
2010-09-30, 0
2010-10-01, 0
2010-10-02, 0
2010-10-03, 0
2010-10-04, 0
2010-10-05, 0
2010-10-06, 0
2010-10-07, 0
2010-10-08, 0
2010-10-09, 0
2010-10-10, 0
2010-10-11, 0
2010-10-12, 0
2010-10-13, 0
2010-10-14, 0
2010-10-15, 0
2010-10-16, 0
2010-10-17, 0
2010-10-18, 0
2010-10-19, 0
2010-10-20, 0
2010-10-21, 0
2010-10-22, 0
2010-10-23, 0
2010-10-24, 0
2010-10-25, 0
2010-10-26, 0
2010-10-27, 0
2010-10-28, 0
2010-10-29, 0
2010-10-30, 0
2010-10-31, 0
2010-11-01, 6.72
2010-11-02, 6.68
2010-11-03, 6.49
2010-11-04, 6.48
2010-11-05, 6.23
2010-11-06, 6.18
2010-11-07, 3.72
2010-11-08, 5.03
2010-11-09, 2.38
2010-11-10, 4.88
2010-11-11, 6.38
2010-11-12, 5.85
2010-11-13, 6.06
2010-11-14, 4.17
2010-11-15, 6.61
2010-11-16, 5.97
2010-11-17, 1.92
2010-11-18, 6.2
2010-11-19, 4.02
2010-11-20, 4.04
2010-11-21, 5.14
2010-11-22, 5.16
2010-11-23, 1.58
2010-11-24, 3.3
2010-11-25, 4.99
2010-11-26, 0.39
2010-11-27, 0.22
2010-11-28, 6.15
2010-11-29, 0.16
2010-11-30, 0.66
2010-12-01, 3.91
2010-12-02, 5.42
2010-12-03, 6.19
2010-12-04, 4.67
2010-12-05, 2.92
2010-12-06, 1.88
2010-12-07, 2.67
2010-12-08, 4.38
2010-12-09, 5.07
2010-12-10, 0.46
2010-12-11, 4.66
2010-12-12, 3.75
2010-12-13, 3.33
2010-12-14, 5.02
2010-12-15, 5.9
2010-12-16, 5.26
2010-12-17, 2.86
2010-12-18, 0.21
2010-12-19, 3.62
2010-12-20, 1.85
2010-12-21, 0.72
2010-12-22, 0.49
2010-12-23, 4.4
2010-12-24, 3.62
2010-12-25, 1.87
2010-12-26, 5.62
2010-12-27, 4.99
2010-12-28, 1.43
2010-12-29, 0.95
2010-12-30, 0.68
2010-12-31, 1.36
